SDM596Z UHPP-UNKL

Flight info

Callsign SDM596Z
Flight time N/A
Altitude 36000
Route GANKA4L GANKA DCT RELPA A812 OTLIM G119 BANOT G370 UTS W289 ENIRO/K0819F360 W289 GISUN W39 ERBOG W105 LANAP W339 BARIK DCT OKRIM OKRIM2S
Aircraft A320/M-SDE3FGHIRWY/LB1

Departure

Time 2026-05-08 03:31
Airport Yelizovo Airport (UHPP)

Arrival

Time N/A
Airport Krasnoyarsk International Airport (UNKL)
Time Latitude Longitude Altitude Speed Heading
2026-05-08 03:04 53.16971 158.42918 134 ft 0 kts 40°
2026-05-08 03:18 53.16974 158.42920 134 ft 0 kts 40°
2026-05-08 03:19 53.16980 158.42929 134 ft 2 kts 39°
2026-05-08 03:19 53.16999 158.42949 134 ft 4 kts 26°
2026-05-08 03:19 53.17034 158.42967 134 ft 6 kts 360°
2026-05-08 03:19 53.17077 158.42972 134 ft 5 kts 28°
2026-05-08 03:20 53.17103 158.43015 134 ft 4 kts 52°
2026-05-08 03:20 53.17119 158.43054 134 ft 3 kts 62°
2026-05-08 03:20 53.17133 158.43100 134 ft 5 kts 62°
2026-05-08 03:20 53.17155 158.43169 134 ft 7 kts 61°
2026-05-08 03:21 53.17186 158.43259 134 ft 9 kts 58°
2026-05-08 03:21 53.17224 158.43364 134 ft 11 kts 58°
2026-05-08 03:21 53.17270 158.43491 134 ft 14 kts 59°
2026-05-08 03:21 53.17320 158.43630 134 ft 13 kts 58°
2026-05-08 03:22 53.17366 158.43756 134 ft 12 kts 61°
2026-05-08 03:22 53.17406 158.43877 134 ft 11 kts 60°
2026-05-08 03:22 53.17442 158.43983 134 ft 10 kts 60°
2026-05-08 03:22 53.17474 158.44080 134 ft 8 kts 66°
2026-05-08 03:23 53.17495 158.44170 134 ft 7 kts 69°
2026-05-08 03:23 53.17512 158.44247 134 ft 6 kts 69°
2026-05-08 03:23 53.17526 158.44312 134 ft 5 kts 69°
2026-05-08 03:23 53.17536 158.44359 134 ft 4 kts 69°
2026-05-08 03:24 53.17549 158.44418 134 ft 6 kts 69°
2026-05-08 03:24 53.17570 158.44510 134 ft 9 kts 69°
2026-05-08 03:24 53.17581 158.44606 134 ft 8 kts 104°
2026-05-08 03:24 53.17542 158.44650 134 ft 9 kts 161°
2026-05-08 03:25 53.17414 158.44730 134 ft 29 kts 158°
2026-05-08 03:25 53.17218 158.44861 134 ft 29 kts 160°
2026-05-08 03:25 53.17042 158.44987 134 ft 27 kts 155°
2026-05-08 03:25 53.16871 158.45116 134 ft 26 kts 153°
2026-05-08 03:26 53.16704 158.45235 134 ft 25 kts 159°
2026-05-08 03:26 53.16539 158.45329 134 ft 24 kts 162°
2026-05-08 03:26 53.16386 158.45424 134 ft 22 kts 152°
2026-05-08 03:26 53.16249 158.45538 134 ft 21 kts 154°
2026-05-08 03:27 53.16116 158.45636 134 ft 20 kts 158°
2026-05-08 03:27 53.15984 158.45726 134 ft 22 kts 158°
2026-05-08 03:27 53.15828 158.45833 134 ft 26 kts 158°
2026-05-08 03:27 53.15680 158.45926 134 ft 17 kts 160°
2026-05-08 03:28 53.15599 158.45931 134 ft 10 kts 188°
2026-05-08 03:28 53.15545 158.45966 134 ft 5 kts 115°
2026-05-08 03:28 53.15550 158.46016 134 ft 4 kts 42°
2026-05-08 03:28 53.15565 158.46019 134 ft 0 kts 337°
2026-05-08 03:29 53.15570 158.46016 134 ft 3 kts 335°
2026-05-08 03:30 53.15904 158.45779 134 ft 68 kts 336°
2026-05-08 03:30 53.17583 158.44629 163 ft 179 kts 335°
2026-05-08 03:31 53.19770 158.43041 1611 ft 173 kts 345°
2026-05-08 03:31 53.22104 158.41692 2641 ft 191 kts 334°
2026-05-08 03:32 53.23368 158.40808 3009 ft 203 kts 334°
2026-05-08 03:32 53.24645 158.39912 3740 ft 196 kts 334°
2026-05-08 03:32 53.25843 158.39069 4508 ft 184 kts 333°
2026-05-08 03:32 53.26973 158.38269 5248 ft 173 kts 333°
2026-05-08 03:33 53.28106 158.37456 5589 ft 185 kts 333°
2026-05-08 03:33 53.29343 158.36560 5880 ft 200 kts 333°
2026-05-08 03:33 53.30653 158.35609 6155 ft 214 kts 333°
2026-05-08 03:33 53.32072 158.34578 6436 ft 232 kts 333°
2026-05-08 03:34 53.33598 158.33466 6738 ft 247 kts 333°
2026-05-08 03:34 53.35200 158.32263 7078 ft 259 kts 327°
2026-05-08 03:34 53.36517 158.30235 7577 ft 260 kts 299°
2026-05-08 03:34 53.37242 158.27464 8171 ft 261 kts 291°
2026-05-08 03:35 53.37910 158.24674 8771 ft 262 kts 292°
2026-05-08 03:35 53.38589 158.21851 9368 ft 264 kts 292°
2026-05-08 03:35 53.39643 158.17452 10134 ft 272 kts 292°
2026-05-08 03:36 53.40362 158.14436 10389 ft 285 kts 291°
2026-05-08 03:36 53.41118 158.11261 10617 ft 299 kts 291°
2026-05-08 03:36 53.41895 158.07988 10832 ft 312 kts 291°
2026-05-08 03:36 53.42713 158.04530 11194 ft 319 kts 291°
2026-05-08 03:37 53.43532 158.01067 11673 ft 321 kts 291°
2026-05-08 03:37 53.44354 157.97583 12174 ft 323 kts 291°
2026-05-08 03:37 53.45177 157.94093 12670 ft 324 kts 291°
2026-05-08 03:37 53.46005 157.90572 13158 ft 325 kts 291°
2026-05-08 03:38 53.46833 157.87047 13632 ft 326 kts 291°
2026-05-08 03:38 53.47767 157.83603 14087 ft 327 kts 302°
2026-05-08 03:38 53.49271 157.80733 14507 ft 332 kts 319°
2026-05-08 03:38 53.51284 157.78822 14908 ft 341 kts 337°
2026-05-08 03:39 53.53635 157.78137 15291 ft 353 kts 356°
2026-05-08 03:39 53.56100 157.78752 15667 ft 363 kts
2026-05-08 03:39 53.58566 157.79688 16054 ft 365 kts
2026-05-08 03:39 53.61055 157.80633 16431 ft 367 kts
2026-05-08 03:40 53.63542 157.81572 16794 ft 369 kts
2026-05-08 03:40 53.66070 157.82523 17155 ft 371 kts
2026-05-08 03:40 53.68566 157.83456 17501 ft 373 kts
2026-05-08 03:40 53.71102 157.84402 17842 ft 375 kts
2026-05-08 03:41 53.73660 157.85358 18179 ft 377 kts
2026-05-08 03:41 53.76237 157.86252 18506 ft 375 kts 360°
2026-05-08 03:41 53.78780 157.86144 18804 ft 363 kts 342°
2026-05-08 03:41 53.81088 157.84705 19094 ft 355 kts 326°
2026-05-08 03:42 53.83224 157.82642 19413 ft 355 kts 325°
2026-05-08 03:42 53.85361 157.80550 19741 ft 356 kts 325°
2026-05-08 03:42 53.87513 157.78445 20057 ft 358 kts 325°
2026-05-08 03:42 53.89671 157.76335 20366 ft 359 kts 325°
2026-05-08 03:43 53.91819 157.74231 20659 ft 360 kts 325°
2026-05-08 03:43 53.93988 157.72104 20952 ft 361 kts 324°
2026-05-08 03:43 53.96168 157.69963 21237 ft 363 kts 324°
2026-05-08 03:43 53.98361 157.67807 21515 ft 364 kts 324°
2026-05-08 03:44 54.00555 157.65648 21784 ft 366 kts 324°
2026-05-08 03:44 54.02749 157.63486 22055 ft 367 kts 324°
2026-05-08 03:44 54.04951 157.61313 22320 ft 368 kts 324°
2026-05-08 03:44 54.07154 157.59137 22574 ft 369 kts 324°
2026-05-08 03:45 54.09390 157.56924 22824 ft 371 kts 324°
2026-05-08 03:45 54.11601 157.54736 23068 ft 372 kts 324°
2026-05-08 03:45 54.13845 157.52527 23316 ft 373 kts 324°
2026-05-08 03:45 54.16092 157.50313 23562 ft 374 kts 324°
2026-05-08 03:46 54.18350 157.48086 23795 ft 375 kts 324°
2026-05-08 03:46 54.20597 157.45866 24018 ft 377 kts 324°
2026-05-08 03:46 54.22883 157.43605 24251 ft 378 kts 324°
2026-05-08 03:46 54.25137 157.41373 24472 ft 379 kts 324°
2026-05-08 03:47 54.27406 157.39121 24682 ft 380 kts 324°
2026-05-08 03:47 54.29698 157.36844 24900 ft 381 kts 324°
2026-05-08 03:47 54.31977 157.34578 25111 ft 382 kts 323°
2026-05-08 03:47 54.34291 157.32274 25339 ft 383 kts 323°
2026-05-08 03:48 54.36593 157.29979 25542 ft 384 kts 323°
2026-05-08 03:48 54.38912 157.27663 25752 ft 386 kts 323°
2026-05-08 03:48 54.41205 157.25371 25962 ft 386 kts 323°
2026-05-08 03:48 54.43520 157.23053 26168 ft 387 kts 323°
2026-05-08 03:49 54.45868 157.20700 26353 ft 389 kts 323°
2026-05-08 03:49 54.48188 157.18370 26541 ft 390 kts 322°
2026-05-08 03:49 54.50519 157.16028 26727 ft 391 kts 322°
2026-05-08 03:49 54.52860 157.13672 26904 ft 392 kts 322°
2026-05-08 03:50 54.55217 157.11296 27088 ft 393 kts 322°
2026-05-08 03:50 54.57584 157.08907 27269 ft 394 kts 322°
2026-05-08 03:50 54.59957 157.06509 27445 ft 395 kts 322°
2026-05-08 03:50 54.62315 157.04123 27610 ft 396 kts 322°
2026-05-08 03:51 54.64672 157.01733 27793 ft 397 kts 322°
2026-05-08 03:51 54.67037 156.99335 27963 ft 397 kts 322°
2026-05-08 03:51 54.69452 156.96881 28125 ft 398 kts 322°
2026-05-08 03:51 54.71824 156.94467 28279 ft 399 kts 322°
2026-05-08 03:52 54.74223 156.92024 28432 ft 400 kts 322°
2026-05-08 03:52 54.76602 156.89597 28580 ft 401 kts 322°
2026-05-08 03:52 54.78988 156.87158 28724 ft 402 kts 322°
2026-05-08 03:52 54.81393 156.84698 28867 ft 403 kts 322°
2026-05-08 03:53 54.83805 156.82228 29009 ft 404 kts 322°
2026-05-08 03:53 54.86226 156.79746 29148 ft 404 kts 322°
2026-05-08 03:53 54.88644 156.77263 29277 ft 405 kts 322°
2026-05-08 03:54 54.93509 156.72257 29428 ft 410 kts 322°
2026-05-08 03:54 54.98435 156.67174 29550 ft 414 kts 323°
2026-05-08 03:55 55.03406 156.62018 29673 ft 419 kts 323°
2026-05-08 03:55 55.08396 156.56828 29862 ft 421 kts 323°
2026-05-08 03:55 55.10931 156.54189 29990 ft 422 kts 323°
2026-05-08 03:56 55.13431 156.51578 30111 ft 422 kts 323°
2026-05-08 03:56 55.15935 156.48965 30260 ft 422 kts 323°
2026-05-08 03:56 55.18446 156.46347 30425 ft 421 kts 323°
2026-05-08 03:56 55.20964 156.43716 30583 ft 420 kts 323°
2026-05-08 03:57 55.23465 156.41100 30732 ft 420 kts 323°
2026-05-08 03:57 55.25968 156.38475 30879 ft 419 kts 323°
2026-05-08 03:57 55.28452 156.35866 31021 ft 419 kts 323°
2026-05-08 03:57 55.30948 156.33243 31183 ft 418 kts 322°
2026-05-08 03:58 55.33450 156.30608 31356 ft 417 kts 322°
2026-05-08 03:58 55.35901 156.28023 31503 ft 417 kts 322°
2026-05-08 03:58 55.38382 156.25403 31645 ft 417 kts 322°
2026-05-08 03:58 55.40853 156.22786 31790 ft 416 kts 322°
2026-05-08 03:59 55.43321 156.20157 31927 ft 416 kts 322°
2026-05-08 03:59 55.45791 156.17520 32064 ft 415 kts 322°
2026-05-08 03:59 55.48272 156.14870 32196 ft 415 kts 322°
2026-05-08 03:59 55.50711 156.12260 32328 ft 414 kts 322°
2026-05-08 04:00 55.53180 156.09615 32451 ft 414 kts 322°
2026-05-08 04:00 55.55622 156.06993 32572 ft 413 kts 322°
2026-05-08 04:00 55.58085 156.04346 32693 ft 413 kts 322°
2026-05-08 04:00 55.60516 156.01729 32805 ft 413 kts 322°
2026-05-08 04:01 55.62972 155.99081 32921 ft 412 kts 322°
2026-05-08 04:01 55.65414 155.96446 33030 ft 412 kts 322°
2026-05-08 04:01 55.67848 155.93816 33147 ft 411 kts 322°
2026-05-08 04:01 55.70283 155.91180 33253 ft 411 kts 322°
2026-05-08 04:02 55.72702 155.88557 33359 ft 411 kts 322°
2026-05-08 04:02 55.75132 155.85919 33465 ft 410 kts 322°
2026-05-08 04:02 55.77555 155.83284 33573 ft 410 kts 322°
2026-05-08 04:03 55.82416 155.77988 33772 ft 409 kts 321°
2026-05-08 04:03 55.89646 155.70077 33849 ft 409 kts 321°
2026-05-08 04:04 55.94477 155.64775 33850 ft 408 kts 321°
2026-05-08 04:04 55.99317 155.59445 33851 ft 408 kts 321°
2026-05-08 04:05 56.04122 155.54138 33851 ft 408 kts 321°
2026-05-08 04:05 56.08937 155.48805 33851 ft 408 kts 321°
2026-05-08 04:06 56.13736 155.43474 34010 ft 405 kts 321°
2026-05-08 04:06 56.18531 155.38130 33997 ft 407 kts 322°
2026-05-08 04:07 56.23351 155.32858 33998 ft 408 kts 321°
2026-05-08 04:07 56.28185 155.27560 33995 ft 408 kts 321°
2026-05-08 04:08 56.33000 155.22266 33996 ft 407 kts 321°
2026-05-08 04:08 56.37820 155.16945 33996 ft 407 kts 321°
2026-05-08 04:09 56.42656 155.11591 33996 ft 408 kts 321°
2026-05-08 04:09 56.47465 155.06250 33996 ft 408 kts 321°
2026-05-08 04:10 56.52288 155.00879 33996 ft 408 kts 321°
2026-05-08 04:10 56.57098 154.95505 33996 ft 408 kts 321°
2026-05-08 04:11 56.61907 154.90115 33997 ft 408 kts 321°
2026-05-08 04:11 56.66747 154.84674 33997 ft 409 kts 321°
2026-05-08 04:12 56.71580 154.79225 33996 ft 409 kts 321°
2026-05-08 04:12 56.76373 154.73805 33996 ft 409 kts 321°
2026-05-08 04:13 56.81193 154.68338 33996 ft 409 kts 321°
2026-05-08 04:13 56.86024 154.62840 33996 ft 409 kts 321°
2026-05-08 04:14 56.90847 154.57336 34048 ft 410 kts 321°
2026-05-08 04:14 56.95671 154.51813 34219 ft 409 kts 321°
2026-05-08 04:15 56.98042 154.49095 34522 ft 403 kts 321°
2026-05-08 04:15 57.00397 154.46393 34763 ft 399 kts 322°
2026-05-08 04:15 57.05105 154.40965 34778 ft 404 kts 323°
2026-05-08 04:16 57.09905 154.35416 34757 ft 409 kts 324°
2026-05-08 04:16 57.14746 154.29803 34785 ft 413 kts 323°
2026-05-08 04:17 57.18822 154.25069 34844 ft 416 kts 323°
2026-05-08 04:17 57.23730 154.19388 34932 ft 419 kts 323°
2026-05-08 04:18 57.26172 154.16557 35134 ft 415 kts 323°
2026-05-08 04:18 57.28498 154.13444 35283 ft 410 kts 314°
2026-05-08 04:18 57.31997 154.05324 35364 ft 404 kts 295°
2026-05-08 04:19 57.33630 153.95467 35412 ft 403 kts 275°
2026-05-08 04:19 57.33572 153.85149 35460 ft 405 kts 268°
2026-05-08 04:20 57.33570 153.74750 35512 ft 407 kts 280°
2026-05-08 04:20 57.34339 153.69693 35527 ft 410 kts 292°
2026-05-08 04:20 57.35721 153.65033 35543 ft 414 kts 304°
2026-05-08 04:21 57.37627 153.61076 35554 ft 419 kts 316°
2026-05-08 04:21 57.39990 153.57939 35571 ft 425 kts 326°
2026-05-08 04:21 57.45132 153.52547 35668 ft 426 kts 327°
2026-05-08 04:22 57.50279 153.47162 35778 ft 426 kts 327°
2026-05-08 04:22 57.55422 153.41746 35875 ft 426 kts 327°
2026-05-08 04:23 57.60586 153.36279 35884 ft 428 kts 327°
2026-05-08 04:23 57.65737 153.30804 35883 ft 430 kts 326°
2026-05-08 04:24 57.70931 153.25267 35631 ft 433 kts 326°
2026-05-08 04:24 57.73568 153.22449 35200 ft 433 kts 326°
2026-05-08 04:24 57.76138 153.19699 34631 ft 433 kts 326°
2026-05-08 04:25 57.78739 153.16911 34008 ft 434 kts 326°
2026-05-08 04:25 57.81374 153.14081 33363 ft 435 kts 326°
2026-05-08 04:25 57.83991 153.11264 32712 ft 436 kts 326°
2026-05-08 04:25 57.86582 153.08472 32070 ft 437 kts 326°
2026-05-08 04:26 57.89230 153.05612 31440 ft 437 kts 326°
2026-05-08 04:26 57.91835 153.02795 30908 ft 436 kts 326°
2026-05-08 04:26 57.94470 152.99942 30416 ft 433 kts 326°
2026-05-08 04:26 57.97051 152.97144 29951 ft 430 kts 326°
2026-05-08 04:27 57.99632 152.94339 29470 ft 427 kts 326°
2026-05-08 04:27 58.02169 152.91569 28905 ft 426 kts 326°
2026-05-08 04:27 58.04734 152.88756 28273 ft 427 kts 326°
2026-05-08 04:27 58.07271 152.85957 27863 ft 422 kts 326°
2026-05-08 04:28 58.09777 152.83192 27659 ft 412 kts 326°
2026-05-08 04:28 58.12197 152.80530 27476 ft 402 kts 326°
2026-05-08 04:28 58.14586 152.77904 27298 ft 392 kts 326°
2026-05-08 04:28 58.16913 152.75354 27123 ft 382 kts 326°
2026-05-08 04:29 58.19174 152.72882 26948 ft 372 kts 326°
2026-05-08 04:29 58.21380 152.70474 26772 ft 362 kts 326°
2026-05-08 04:29 58.23547 152.68195 26570 ft 355 kts 328°
2026-05-08 04:29 58.25693 152.66025 26245 ft 350 kts 328°
2026-05-08 04:30 58.27838 152.63847 25860 ft 347 kts 328°
2026-05-08 04:30 58.29958 152.61685 25462 ft 344 kts 328°
2026-05-08 04:30 58.32064 152.59528 25061 ft 342 kts 328°
2026-05-08 04:30 58.34128 152.57410 24660 ft 340 kts 328°
2026-05-08 04:31 58.36178 152.55301 24250 ft 338 kts 328°
2026-05-08 04:31 58.38229 152.53191 23865 ft 335 kts 328°
2026-05-08 04:31 58.40286 152.51070 23465 ft 333 kts 328°
2026-05-08 04:31 58.42294 152.48997 23057 ft 331 kts 328°
2026-05-08 04:32 58.44308 152.46915 22656 ft 329 kts 328°
2026-05-08 04:32 58.46318 152.44835 22256 ft 327 kts 328°
2026-05-08 04:32 58.48296 152.42784 21860 ft 325 kts 328°
2026-05-08 04:32 58.50286 152.40720 21473 ft 322 kts 328°
2026-05-08 04:33 58.52221 152.38709 21088 ft 320 kts 328°
2026-05-08 04:33 58.54163 152.36688 20691 ft 318 kts 328°
2026-05-08 04:33 58.55839 152.34943 20352 ft 317 kts 327°
2026-05-08 04:33 58.56278 152.34485 20265 ft 316 kts 327°
2026-05-08 04:34 58.57831 152.32864 19968 ft 314 kts 327°
2026-05-08 04:34 58.59717 152.30896 19592 ft 312 kts 327°
2026-05-08 04:34 58.61536 152.28993 19227 ft 310 kts 327°
2026-05-08 04:34 58.63430 152.27011 18846 ft 309 kts 327°
2026-05-08 04:35 58.65306 152.25044 18467 ft 307 kts 327°
2026-05-08 04:35 58.67153 152.23106 18087 ft 305 kts 327°
2026-05-08 04:35 58.69001 152.21166 17709 ft 303 kts 327°
2026-05-08 04:35 58.70846 152.19225 17333 ft 301 kts 327°
2026-05-08 04:36 58.72678 152.17296 16901 ft 300 kts 327°
2026-05-08 04:36 58.74497 152.15376 16331 ft 306 kts 327°
2026-05-08 04:36 58.76384 152.13382 15902 ft 305 kts 328°
2026-05-08 04:36 58.78236 152.11423 15677 ft 310 kts 328°
2026-05-08 04:37 58.80175 152.09363 15533 ft 332 kts 328°
2026-05-08 04:37 58.82253 152.07150 15373 ft 349 kts 328°
2026-05-08 04:37 58.84398 152.04871 15187 ft 354 kts 328°
2026-05-08 04:37 58.86550 152.02585 14995 ft 354 kts 328°
2026-05-08 04:38 58.88697 152.00305 14800 ft 353 kts 328°
2026-05-08 04:38 58.90868 151.97996 14594 ft 353 kts 328°
2026-05-08 04:38 58.93013 151.95709 14389 ft 357 kts 329°
2026-05-08 04:38 58.95242 151.93323 14178 ft 377 kts 329°
2026-05-08 04:39 58.97603 151.90791 13941 ft 393 kts 329°
2026-05-08 04:39 58.99976 151.88245 13712 ft 397 kts 330°
2026-05-08 04:39 59.02407 151.85634 13482 ft 398 kts 330°
2026-05-08 04:39 59.04822 151.83041 13256 ft 392 kts 330°
2026-05-08 04:40 59.07159 151.80530 13047 ft 380 kts 330°
2026-05-08 04:40 59.09434 151.78081 12843 ft 368 kts 330°
2026-05-08 04:40 59.11642 151.75700 12643 ft 357 kts 330°
2026-05-08 04:40 59.13782 151.73387 12447 ft 347 kts 330°
2026-05-08 04:41 59.15846 151.71152 12256 ft 337 kts 330°
2026-05-08 04:41 59.17851 151.68977 12068 ft 327 kts 330°
2026-05-08 04:41 59.19819 151.66840 11881 ft 317 kts 330°
2026-05-08 04:41 59.21700 151.64793 11706 ft 304 kts 330°
2026-05-08 04:42 59.23506 151.62826 11578 ft 290 kts 330°
2026-05-08 04:42 59.25240 151.60936 11464 ft 284 kts 330°
2026-05-08 04:42 59.26961 151.59055 11352 ft 284 kts 330°
2026-05-08 04:42 59.28703 151.57146 11225 ft 284 kts 330°
2026-05-08 04:43 59.30415 151.55270 11097 ft 283 kts 330°
2026-05-08 04:43 59.32143 151.53499 11016 ft 284 kts 340°
2026-05-08 04:43 59.34058 151.52486 10911 ft 284 kts 344°
2026-05-08 04:43 59.35959 151.51533 10785 ft 283 kts 345°
2026-05-08 04:44 59.37882 151.50580 10656 ft 282 kts 345°
2026-05-08 04:44 59.39772 151.49625 10527 ft 281 kts 345°
2026-05-08 04:44 59.41656 151.48660 10401 ft 281 kts 344°
2026-05-08 04:44 59.43554 151.47681 10274 ft 281 kts 344°
2026-05-08 04:45 59.45435 151.46704 10153 ft 280 kts 345°
2026-05-08 04:45 59.47298 151.45732 10027 ft 279 kts 344°
2026-05-08 04:45 59.49186 151.44701 9901 ft 279 kts 341°
2026-05-08 04:45 59.50982 151.43381 9779 ft 277 kts 338°
2026-05-08 04:46 59.52773 151.42004 9652 ft 277 kts 338°
2026-05-08 04:46 59.54576 151.40630 9527 ft 277 kts 339°
2026-05-08 04:46 59.56366 151.39275 9403 ft 276 kts 339°
2026-05-08 04:46 59.58143 151.37933 9281 ft 275 kts 339°
2026-05-08 04:47 59.59918 151.36600 9377 ft 266 kts 339°
2026-05-08 04:47 59.61592 151.35349 9618 ft 259 kts 339°
2026-05-08 04:47 59.63325 151.34024 9739 ft 269 kts 338°
2026-05-08 04:47 59.65091 151.32692 9520 ft 277 kts 339°
2026-05-08 04:48 59.66917 151.31323 8999 ft 285 kts 339°
2026-05-08 04:48 59.68766 151.29938 8476 ft 290 kts 339°
2026-05-08 04:48 59.70654 151.28522 8085 ft 290 kts 339°
2026-05-08 04:48 59.72540 151.27107 7734 ft 288 kts 339°
2026-05-08 04:49 59.74402 151.25711 7387 ft 286 kts 339°
2026-05-08 04:49 59.76221 151.24342 7039 ft 282 kts 340°
2026-05-08 04:49 59.78037 151.22978 6694 ft 276 kts 340°
2026-05-08 04:49 59.79666 151.21973 6378 ft 271 kts 353°
2026-05-08 04:50 59.81070 151.21959 6133 ft 266 kts
2026-05-08 04:50 59.82920 151.22192 5809 ft 262 kts
2026-05-08 04:50 59.84717 151.22414 5503 ft 261 kts
2026-05-08 04:50 59.86019 151.22566 5267 ft 261 kts
2026-05-08 04:51 59.87791 151.21939 4923 ft 262 kts 334°
2026-05-08 04:51 59.89191 151.19623 4447 ft 271 kts 304°
2026-05-08 04:51 59.89824 151.16067 3925 ft 281 kts 276°
2026-05-08 04:51 59.89941 151.12204 3635 ft 277 kts 275°
2026-05-08 04:52 59.90051 151.08386 3297 ft 273 kts 275°
2026-05-08 04:52 59.90161 151.04742 3253 ft 261 kts 274°
2026-05-08 04:52 59.90269 151.01183 3121 ft 253 kts 275°
2026-05-08 04:52 59.90373 150.97733 2930 ft 247 kts 274°
2026-05-08 04:53 59.90475 150.94315 2613 ft 242 kts 275°
2026-05-08 04:53 59.90570 150.91017 2284 ft 241 kts 275°
2026-05-08 04:53 59.90655 150.87735 2165 ft 229 kts 274°
2026-05-08 04:53 59.90726 150.84627 1934 ft 218 kts 272°
2026-05-08 04:54 59.90734 150.81612 1997 ft 221 kts 270°
2026-05-08 04:54 59.90733 150.78442 2594 ft 235 kts 271°
2026-05-08 04:54 59.90745 150.75117 3264 ft 246 kts 272°
2026-05-08 04:54 59.90774 150.71724 4009 ft 254 kts 273°
2026-05-08 04:55 59.90825 150.68222 4790 ft 251 kts 274°
2026-05-08 04:55 59.90895 150.64786 5527 ft 249 kts 274°
2026-05-08 04:55 59.90636 150.61275 5654 ft 266 kts 249°
2026-05-08 04:55 59.89608 150.58279 5250 ft 271 kts 221°
2026-05-08 04:56 59.87922 150.56502 4765 ft 276 kts 191°
2026-05-08 04:56 59.86041 150.56485 4291 ft 277 kts 162°
2026-05-08 04:56 59.84386 150.58250 4072 ft 263 kts 133°
2026-05-08 04:56 59.83439 150.61171 3873 ft 248 kts 104°
2026-05-08 04:57 59.83175 150.64470 3690 ft 239 kts 95°
2026-05-08 04:57 59.82978 150.67720 3627 ft 234 kts 95°
2026-05-08 04:57 59.82779 150.70937 3623 ft 238 kts 95°
2026-05-08 04:57 59.82574 150.74240 3787 ft 240 kts 95°
2026-05-08 04:58 59.82372 150.77499 4031 ft 239 kts 95°
2026-05-08 04:58 59.82168 150.80801 4278 ft 240 kts 95°
2026-05-08 04:58 59.81965 150.84078 4523 ft 240 kts 95°
2026-05-08 04:58 59.81761 150.87393 4704 ft 242 kts 95°
2026-05-08 04:59 59.81556 150.90706 4730 ft 241 kts 95°
2026-05-08 04:59 59.81353 150.93988 4647 ft 237 kts 95°
2026-05-08 04:59 59.81153 150.97179 4596 ft 227 kts 95°
2026-05-08 04:59 59.80961 151.00249 4385 ft 222 kts 95°
2026-05-08 05:00 59.80775 151.03230 4328 ft 216 kts 95°
2026-05-08 05:00 59.80595 151.06053 4352 ft 194 kts 94°
2026-05-08 05:00 59.80706 151.08493 4364 ft 167 kts 61°
2026-05-08 05:00 59.81518 151.10077 3980 ft 171 kts 21°
2026-05-08 05:01 59.82684 151.10118 3699 ft 170 kts 346°
2026-05-08 05:01 59.83820 151.09495 3620 ft 167 kts 349°
2026-05-08 05:01 59.84946 151.08905 3621 ft 167 kts 348°
2026-05-08 05:01 59.86062 151.08321 3620 ft 168 kts 348°
2026-05-08 05:02 59.87196 151.07729 3619 ft 166 kts 348°
2026-05-08 05:02 59.88301 151.07149 3620 ft 167 kts 348°
2026-05-08 05:02 59.89399 151.06334 3621 ft 171 kts 326°
2026-05-08 05:02 59.90107 151.04434 3617 ft 178 kts 289°
2026-05-08 05:03 59.90255 151.01973 3418 ft 177 kts 275°
2026-05-08 05:03 59.90322 150.99580 3137 ft 169 kts 276°
2026-05-08 05:03 59.90388 150.97263 2886 ft 168 kts 275°
2026-05-08 05:03 59.90455 150.94959 2672 ft 167 kts 275°
2026-05-08 05:04 59.90522 150.92671 2447 ft 167 kts 275°
2026-05-08 05:04 59.90568 150.91019 2279 ft 165 kts 274°
2026-05-08 05:04 59.90634 150.88747 2130 ft 157 kts 273°
2026-05-08 05:04 59.90696 150.86568 2018 ft 158 kts 273°
2026-05-08 05:05 59.90757 150.84405 1772 ft 157 kts 273°
2026-05-08 05:05 59.90806 150.82233 1489 ft 156 kts 271°
2026-05-08 05:05 59.90839 150.80617 1265 ft 155 kts 274°
2026-05-08 05:05 59.90902 150.78465 978 ft 155 kts 273°
2026-05-08 05:06 59.90967 150.76350 723 ft 153 kts 273°
2026-05-08 05:06 59.91037 150.74222 602 ft 147 kts 273°
2026-05-08 05:06 59.91087 150.72363 592 ft 116 kts 275°
2026-05-08 05:06 59.91121 150.71127 592 ft 69 kts 272°